Location: Unspecified
(43.4354°N, 0.0000°E)
Time: 02:32:33
(UTC+00:00)

Courier 1B - Pass Details

Date: 22 June 2019
Orbit: 963 x 1209 km, 28.3° (Epoch: 21 July)

Event Time Altitude Azimuth Distance (km) Brightness Sun altitude
Rises 18:27:22 0° 226° (SW) 3,827 11.0 11.5°
Reaches altitude 10° 18:30:49 10° 210° (SSW) 2,920 10.2 11.0°
Maximum altitude 18:35:48 20° 166° (SSE) 2,316 9.2 10.1°
Drops below altitude 10° 18:40:58 10° 122° (ESE) 3,048 9.5 9.3°
Sets 18:44:40 0° 107° (ESE) 4,048 10.1 8.6°
